Regional Weather Roundup
Issued by NWS Wakefield, VA

Home | Current Version | Previous Version | Graphics & Text | Print | Product List | Glossary On
Versions: 1 2 3 4 5 6 7 8 9 10 11 12 13 14 15 16 17 18 19 20 21 22 23 24 25 26 27 28 29 30 31 32 33 34 35 36 37 38 39 40 41 42 43 44 45 46 47 48 49 50
959
ASUS41 KAKQ 290416
RWRAKQ

REGIONAL WEATHER ROUNDUP
NATIONAL WEATHER SERVICE WAKEFIELD VA
1200 AM EDT MON MAY 29 2017

Note: "fair" indicates few or no clouds below 12,000 feet with no
significant weather and/or obstructions to visibility. * = Denotes
station may not report precipitation (e.g., rain,snow,etc.),
thunder or fog.

VAZ042-051-052>054-056-290500-
NORTHERN VIRGINIA

CITY           SKY/WX    TMP DP  RH WIND       PRES   REMARKS
WASH NATIONAL  CLOUDY    66  64  93 NE12      29.83F
DULLES         DRIZZLE   65  63  93 NE6       29.83S FOG
FORT BELVOIR   CLOUDY    66  64  94 CALM      29.82S
QUANTICO       LGT RAIN  67  67 100 NE7       29.83S
FREDERICKSBRG* CLOUDY    68  68 100 CALM      29.81S
STAFFORD*      CLOUDY    66  66 100 N3        29.86S
WARRENTON      CLOUDY    66  63  90 CALM      29.82S FOG
CULPEPER*      CLOUDY    66  66 100 CALM      29.83F FOG
MANASSAS*      CLOUDY    66  64  93 N3        29.83F FOG
LEESBURG*      CLOUDY    64  64 100 CALM      29.84F FOG
WINCHESTER     CLOUDY    61  61 100 CALM      29.83F FOG
FRONT ROYAL*   CLOUDY    63  63 100 CALM      29.83S
LURAY*         CLOUDY    64  64 100 CALM      29.84S FOG
$$

VAZ048-049-060>072-079>083-290500-
CENTRAL AND SOUTH CENTRAL VIRGINIA

CITY           SKY/WX    TMP DP  RH WIND       PRES   REMARKS
RICHMOND       RAIN      70  68  93 CALM      29.82R FOG
CHESTERFIELD*  NOT AVBL
PETERSBURG*    CLOUDY    67  67  97 CALM      29.83R FOG
HANOVER        LGT RAIN  68  65  90 CALM      29.83R FOG
TAPPAHANNOCK*  CLOUDY    68  68 100 CALM      29.83R
QUINTON*       CLOUDY    67  67 100 N9        29.81S FOG
CHARLOTTSVILLE CLOUDY    67  65  93 N3        29.82F FOG
GORDONSVILLE*  CLOUDY    66  66 100 CALM      29.82S FOG
ORANGE*        CLOUDY    64  64 100 CALM      29.82F FOG
LOUISA*        CLOUDY    70  70 100 CALM      29.82S FOG
BUMPASS*       CLOUDY    66  66 100 CALM      29.82S
FARMVILLE*     LGT RAIN  68  65  91 CALM      29.82S
CREWE*         MOCLDY    64  60  87 CALM      29.83S VSB 1
FORT PICKETT*  FAIR     N/A N/A N/A NW5       29.83S
CHASE CITY*    FAIR      67  65  94 CALM      29.84S
CLARKSVILLE*   FAIR      68  68 100 CALM      29.83S
SOUTH HILL*    CLOUDY    68  68 100 CALM      29.88S
LAWRENCEVILLE* FAIR      70  68  95 CALM      29.82S
EMPORIA*       PTCLDY    68  68 100 NE3       29.83R FOG
$$

VAZ088>098-290500-
SOUTHEAST VIRGINIA

CITY           SKY/WX    TMP DP  RH WIND       PRES   REMARKS
NORFOLK        PTCLDY    69  66  90 CALM      29.80S
VIRGINIA BEACH PTCLDY    65  63  93 CALM      29.79F
NORFOLK NAVAL  MOCLDY    67  64  90 CALM      29.82S
WEST POINT*    CLOUDY    67  67  97 CALM      29.82F
SALUDA*        CLOUDY    66  66 100 CALM      29.81S
NEWPORT NEWS   MOCLDY    67  66  97 CALM      29.80F FOG
LANGLEY AFB    MOCLDY    68  67  98 CALM      29.79S
FORT EUSTIS    MOCLDY    68  66  92 CALM      29.78F
WILLIAMSBURG*  PTCLDY    70  70 100 CALM      29.82S
HR EXEC AP*    CLOUDY    64  61  88 CALM      29.80R
FRANKLIN*      PTCLDY    68  66  95 CALM      29.82S
US460-WAKEFLD  CLOUDY    69  68  96 CALM      29.81S
$$

VAZ020-022-025-037-045-290500-
WEST CENTRAL AND SOUTHWEST VIRGINIA

CITY           SKY/WX    TMP DP  RH WIND       PRES   REMARKS
STAUNTON*      CLOUDY    64  64  99 W5        29.87S FOG
WAYNESBORO*    CLOUDY    64  64 100 CALM      29.86F
HOT SPRINGS VA CLOUDY    59  54  82 W17       29.94S
LYNCHBURG      FOG       63  63 100 CALM      29.86F VSB 1/4
DANVILLE       CLEAR     69  63  81 W3        29.85F
SOUTH BOSTON*  FAIR      68  67  95 CALM      29.84S
MARTINSVILLE   CLEAR     61  59  95 CALM      29.89S
ROANOKE        CLEAR     71  59  65 CALM      29.87F
BLACKSBURG     PTCLDY    62  59  91 CALM      29.94S
DUBLIN*        CLOUDY    66  58  77 SW6       29.93R
MARION*        CLOUDY    64  61  89 CALM      29.98R
HILLSVILLE*    PTCLDY    63  55  74 CALM      29.95R
RICHLANDS*     CLOUDY    64  60  87 SW6       29.97R
WISE*          CLOUDY    63  55  77 CALM      29.98R
ABINGDON*      CLOUDY    65  63  95 CALM      29.95S
$$

MDZ021>025-VAZ099-100-290500-
SOUTHERN MARYLAND AND THE DELMARVA PENINSULA

CITY           SKY/WX    TMP DP  RH WIND       PRES   REMARKS
PATUXENT RIVER CLOUDY    65  65 100 NE8       29.81S
BAY BRIDGE APT LGT RAIN  63  63 100 NE5       29.83F FOG
LEONARDTOWN    CLOUDY    63  63 100 CALM      29.83S
DOVER          LGT RAIN  61  61 100 NE12      29.82F
GEORGETOWN     CLOUDY    62  60  93 NE7       29.82F
EASTON         CLOUDY    64  61  92 E6        29.86F
CAMBRIDGE      CLOUDY    63  63 100 CALM      29.82S FOG
SALISBURY      LGT RAIN  63  63 100 NE6       29.80F FOG
OCEAN CITY     CLOUDY    63  62  97 N5        29.79F
WALLOPS ISLAND FOG       64  64 100 NW6       29.79F VSB 3/4
ACCOMACK*      CLOUDY    67  27  21 CALM      29.80S HAZE
$$

NCZ012>017-030>032-290500-
NORTH CENTRAL AND EASTERN NORTH CAROLINA

CITY           SKY/WX    TMP DP  RH WIND       PRES   REMARKS
ROANOKE RAPIDS MOCLDY    68  68 100 CALM      29.82S
RALEIGH        MOCLDY    72  68  87 SW5       29.84F
ELIZABETH CITY CLOUDY    72  72 100 CALM      29.81F FOG
AHOSKIE*       NOT AVBL
EDENTON*       PTCLDY    73  71  93 CALM      29.82S
CURRITUCK*     CLOUDY   N/A N/A N/A CALM      29.81F HAZE
KILL DEVIL HLS PTCLDY    67  67 100 CALM      29.81R FOG
MANTEO         PTCLDY    70  69  98 CALM      29.82S
CAPE HATTERAS  CLOUDY    77  72  84 W12G18    29.81S
TARBORO*       NOT AVBL
GOLDSBORO      CLOUDY    78  74  86 SW10      29.81F
WASHINGTON     CLOUDY    76  68  76 W3        29.81F
GREENVILLE     CLOUDY    77  68  73 W3        29.84F
NEW BERN       CLOUDY    77  71  82 SW5       29.83F
WILMINGTON     CLOUDY    70  67  90 SW8       29.86F
$$

VAZ048-290500-
ELSEWHERE

CITY           SKY/WX    TMP DP  RH WIND       PRES   REMARKS
HARRISBURG PA  LGT RAIN  62  62 100 E10       29.84F FOG
BALTIMORE      CLOUDY    63  63 100 NE9       29.83F
ANNAPOLIS      CLOUDY    66  65  96 E5        29.83S
ANDREWS AFB    CLOUDY    63  63 100 E6        29.82S FOG
PHILADELPHIA   LGT RAIN  60  57  89 NE8       29.87F
HENDERSON NC   MOCLDY    69  62  79 CALM      29.84S
GREENSBORO     PTCLDY    70  62  76 W12       29.87S
ROCKY MOUNT    CLOUDY    73  71  93 CALM      29.82S
$$

VAZ100-290500-
MARINE

STATION/POSITION TIME  TEMP    WIND        PRES    WAVE   SWELL
                       AIR SEA DIR/SP/G            HT/PER HT/PER
                 (UTC) (F)     (DEG/KT/KT) (MB)    (FT/S) (FT/S)
CAPE MAY NJ      0348   60 64   60/  6/  9 1009.2F
LEWES DE         0348   61 64   80/  9/ 10 1009.3F
15NM E FENWICK I 0250   61 59   70/  6/  8 1009.1    4/ 5   3/ 5
WACHAPREAGUE VA  0348   66 70   CALM  /  2 1008.7R
THOMAS POINT MD  0400   63 66   60/  8/  8   N/A
GOOSES REEF MD   0400   65 64   40/  8/ 10 1010.6    1/ 2
COVE POINT MD    0348   64      40/  6/  8 1010.2F
SOLOMONS ISLAND  0348   65 68   20/  4/  6   N/A
BISHOPS HEAD MD  0348   65 72   20/  5/  8 1009.8F
PINEY POINT MD   0348           80/  4/  6   N/A
POTOMAC MD       0400   66 69   30/  6/  8 1008.5    1
CAMBRIDGE MD     0348   63 70                N/A
LEWISETTA VA     0348   67 70   70/  4/  5 1009.3R
RAPPAHANNOCK LGT 0348          360/  5/  5 1009.6F
STINGRAY PT      0350   68      40/  4/  4 1008.9S
YORK RVR RNG VA  0348   68      30/  8/  8 1008.3F
YORKTOWN VA      0348   69 70   40/  3/  5 1008.7F
JAMESTOWN VA     0400   69 73   CALM  /  2   N/A     0
DOMINION TERM VA 0348   69      30/  1/  2 1009.3S
KIPTOPEKE VA     0348      68   10/  2/  3   N/A
CHES BAY BRIDGE  0348   67 67  360/  1/  1 1008.9F
CAPE HENRY VA    0348   67     280/  2/  3   N/A
WILLOUBY STN VA  0348   68      70/  1/  2 1009.1R
S CRANEY ISL VA  0348   69     130/  2/  3 1009.0S
CAPE HENRY BUOY  0342      65                N/A     2/ 7
1ST LANDING BUOY 0400   68 67              1009.1    1/ 3
CAPE CHARLES BUO 0351      65                N/A     2/ 8
64NM E OF VA BCH 0350   64 64  270/  6/  8 1009.2R   2/ 6   2/ 6
DUCK PIER NC     0348   67 67   10/  3/  4 1009.1S
44100 DUCK FRF   0335      67                N/A     2/ 7
44056 DUCK FRF   0330      68                N/A     2/ 4
OREGON INLET NC  0348           40/  2/  3   N/A
HATTERAS NC      0348   76 75  230/ 11/ 16 1009.4S
DIAMOND SHLS NC  0350   77 76  240/ 21/ 25 1009.3S   6/ 6
CAPE LOOKOUT NC  0300   75     230/ 13/ 18 1010.7R
$$




USA.gov is the U.S. government's official web portal to all federal, state and local government web resources and services.